Time,TemperatureF,DewpointF,PressureIn,WindDirection,WindDirectionDegrees,WindSpeedMPH,WindSpeedGustMPH,Humidity,HourlyPrecipIn,Conditions,Clouds,dailyrainin,SoftwareType,DateUTC
2013-12-14 00:00:00,19.0,-99.9,-100.00,North,-999,-999.0,-999.0,-999,0.00,,,0.00,,2013-12-14 09:00:00,
2013-12-14 00:44:00,19.0,-99.9,-100.00,North,-999,-999.0,-999.0,-999,0.00,,,0.00,,2013-12-14 09:44:00,
2013-12-14 00:54:00,19.0,-99.9,-100.00,North,-999,-999.0,-999.0,-999,0.00,,,0.00,,2013-12-14 09:54:00,
2013-12-14 01:00:00,19.0,-99.9,-100.00,North,-999,-999.0,-999.0,-999,0.00,,,0.00,,2013-12-14 10:00:00,
2013-12-14 01:43:00,19.0,-99.9,-100.00,North,-999,-999.0,-999.0,-999,0.00,,,0.00,,2013-12-14 10:43:00,
2013-12-14 01:53:00,19.0,-99.9,-100.00,North,-999,-999.0,-999.0,-999,0.00,,,0.00,,2013-12-14 10:53:00,
2013-12-14 02:00:00,20.0,-99.9,-100.00,North,-999,-999.0,-999.0,-999,0.00,,,0.00,,2013-12-14 11:00:00,
2013-12-14 02:42:00,20.0,-99.9,-100.00,North,-999,-999.0,-999.0,-999,0.00,,,0.00,,2013-12-14 11:42:00,
2013-12-14 02:53:00,20.0,-99.9,-100.00,North,-999,-999.0,-999.0,-999,0.00,,,0.00,,2013-12-14 11:53:00,
2013-12-14 03:00:00,22.0,-99.9,-100.00,North,-999,-999.0,-999.0,-999,0.00,,,0.00,,2013-12-14 12:00:00,
2013-12-14 03:42:00,22.0,-99.9,-100.00,North,-999,-999.0,-999.0,-999,0.00,,,0.00,,2013-12-14 12:42:00,
2013-12-14 03:53:00,22.0,-99.9,-100.00,North,-999,-999.0,-999.0,-999,0.00,,,0.00,,2013-12-14 12:53:00,
2013-12-14 04:00:00,25.0,-99.9,-100.00,North,-999,-999.0,-999.0,-999,0.00,,,0.00,,2013-12-14 13:00:00,
2013-12-14 04:42:00,25.0,-99.9,-100.00,North,-999,-999.0,-999.0,-999,0.00,,,0.00,,2013-12-14 13:42:00,
2013-12-14 04:52:00,25.0,-99.9,-100.00,North,-999,-999.0,-999.0,-999,0.00,,,0.00,,2013-12-14 13:52:00,
2013-12-14 05:00:00,35.0,-99.9,-100.00,North,-999,-999.0,-999.0,-999,0.05,,,0.05,,2013-12-14 14:00:00,
2013-12-14 05:53:00,35.0,-99.9,-100.00,North,-999,-999.0,-999.0,-999,0.05,,,0.05,,2013-12-14 14:53:00,
2013-12-14 06:00:00,36.0,-99.9,-100.00,North,-999,-999.0,-999.0,-999,0.34,,,0.39,,2013-12-14 15:00:00,
2013-12-14 06:44:00,36.0,-99.9,-100.00,North,-999,-999.0,-999.0,-999,0.34,,,0.39,,2013-12-14 15:44:00,
2013-12-14 06:54:00,36.0,-99.9,-100.00,North,-999,-999.0,-999.0,-999,0.34,,,0.39,,2013-12-14 15:54:00,
2013-12-14 07:00:00,37.0,-99.9,-100.00,North,-999,-999.0,-999.0,-999,0.18,,,0.57,,2013-12-14 16:00:00,
2013-12-14 07:43:00,37.0,-99.9,-100.00,North,-999,-999.0,-999.0,-999,0.18,,,0.57,,2013-12-14 16:43:00,
2013-12-14 07:53:00,37.0,-99.9,-100.00,North,-999,-999.0,-999.0,-999,0.18,,,0.57,,2013-12-14 16:53:00,
2013-12-14 08:00:00,38.0,-99.9,-100.00,North,-999,-999.0,-999.0,-999,0.05,,,0.62,,2013-12-14 17:00:00,
2013-12-14 08:43:00,38.0,-99.9,-100.00,North,-999,-999.0,-999.0,-999,0.05,,,0.62,,2013-12-14 17:43:00,
2013-12-14 08:53:00,38.0,-99.9,-100.00,North,-999,-999.0,-999.0,-999,0.05,,,0.62,,2013-12-14 17:53:00,
2013-12-14 09:00:00,38.0,-99.9,-100.00,North,-999,-999.0,-999.0,-999,0.00,,,0.62,,2013-12-14 18:00:00,
2013-12-14 09:42:00,38.0,-99.9,-100.00,North,-999,-999.0,-999.0,-999,0.00,,,0.62,,2013-12-14 18:42:00,
2013-12-14 09:52:00,38.0,-99.9,-100.00,North,-999,-999.0,-999.0,-999,0.00,,,0.62,,2013-12-14 18:52:00,
2013-12-14 10:00:00,39.0,-99.9,-100.00,North,-999,-999.0,-999.0,-999,0.00,,,0.62,,2013-12-14 19:00:00,
2013-12-14 10:42:00,39.0,-99.9,-100.00,North,-999,-999.0,-999.0,-999,0.00,,,0.62,,2013-12-14 19:42:00,
2013-12-14 10:52:00,39.0,-99.9,-100.00,North,-999,-999.0,-999.0,-999,0.00,,,0.62,,2013-12-14 19:52:00,
2013-12-14 11:00:00,37.0,-99.9,-100.00,North,-999,-999.0,-999.0,-999,0.00,,,0.62,,2013-12-14 20:00:00,
2013-12-14 11:43:00,37.0,-99.9,-100.00,North,-999,-999.0,-999.0,-999,0.00,,,0.62,,2013-12-14 20:43:00,
2013-12-14 11:54:00,37.0,-99.9,-100.00,North,-999,-999.0,-999.0,-999,0.00,,,0.62,,2013-12-14 20:54:00,
2013-12-14 12:00:00,35.0,-99.9,-100.00,North,-999,-999.0,-999.0,-999,0.02,,,0.64,,2013-12-14 21:00:00,
2013-12-14 12:44:00,35.0,-99.9,-100.00,North,-999,-999.0,-999.0,-999,0.02,,,0.64,,2013-12-14 21:44:00,
2013-12-14 12:54:00,35.0,-99.9,-100.00,North,-999,-999.0,-999.0,-999,0.02,,,0.64,,2013-12-14 21:54:00,
2013-12-14 13:00:00,35.0,-99.9,-100.00,North,-999,-999.0,-999.0,-999,0.05,,,0.69,,2013-12-14 22:00:00,
2013-12-14 13:43:00,35.0,-99.9,-100.00,North,-999,-999.0,-999.0,-999,0.05,,,0.69,,2013-12-14 22:43:00,
2013-12-14 13:52:00,35.0,-99.9,-100.00,North,-999,-999.0,-999.0,-999,0.05,,,0.69,,2013-12-14 22:52:00,
2013-12-14 14:00:00,35.0,-99.9,-100.00,North,-999,-999.0,-999.0,-999,0.07,,,0.76,,2013-12-14 23:00:00,
2013-12-14 14:43:00,35.0,-99.9,-100.00,North,-999,-999.0,-999.0,-999,0.07,,,0.76,,2013-12-14 23:43:00,
2013-12-14 14:53:00,35.0,-99.9,-100.00,North,-999,-999.0,-999.0,-999,0.07,,,0.76,,2013-12-14 23:53:00,
2013-12-14 15:00:00,35.0,-99.9,-100.00,North,-999,-999.0,-999.0,-999,0.09,,,0.85,,2013-12-15 00:00:00,
2013-12-14 15:42:00,35.0,-99.9,-100.00,North,-999,-999.0,-999.0,-999,0.09,,,0.85,,2013-12-15 00:42:00,
2013-12-14 15:52:00,35.0,-99.9,-100.00,North,-999,-999.0,-999.0,-999,0.09,,,0.85,,2013-12-15 00:52:00,
2013-12-14 16:00:00,34.0,-99.9,-100.00,North,-999,-999.0,-999.0,-999,0.08,,,0.93,,2013-12-15 01:00:00,
2013-12-14 16:42:00,34.0,-99.9,-100.00,North,-999,-999.0,-999.0,-999,0.08,,,0.93,,2013-12-15 01:42:00,
2013-12-14 16:52:00,34.0,-99.9,-100.00,North,-999,-999.0,-999.0,-999,0.08,,,0.93,,2013-12-15 01:52:00,
2013-12-14 17:00:00,34.0,-99.9,-100.00,North,-999,-999.0,-999.0,-999,0.05,,,0.98,,2013-12-15 02:00:00,
2013-12-14 17:42:00,34.0,-99.9,-100.00,North,-999,-999.0,-999.0,-999,0.05,,,0.98,,2013-12-15 02:42:00,
2013-12-14 17:52:00,34.0,-99.9,-100.00,North,-999,-999.0,-999.0,-999,0.05,,,0.98,,2013-12-15 02:52:00,
2013-12-14 18:43:00,33.0,-99.9,-100.00,North,-999,-999.0,-999.0,-999,0.03,,,1.01,,2013-12-15 03:43:00,
2013-12-14 18:54:00,33.0,-99.9,-100.00,North,-999,-999.0,-999.0,-999,0.03,,,1.01,,2013-12-15 03:54:00,
2013-12-14 19:00:00,33.0,-99.9,-100.00,North,-999,-999.0,-999.0,-999,0.03,,,1.04,,2013-12-15 04:00:00,
2013-12-14 19:43:00,33.0,-99.9,-100.00,North,-999,-999.0,-999.0,-999,0.03,,,1.04,,2013-12-15 04:43:00,
2013-12-14 19:53:00,33.0,-99.9,-100.00,North,-999,-999.0,-999.0,-999,0.03,,,1.04,,2013-12-15 04:53:00,
2013-12-14 20:00:00,33.0,-99.9,-100.00,North,-999,-999.0,-999.0,-999,0.03,,,1.07,,2013-12-15 05:00:00,
2013-12-14 20:43:00,33.0,-99.9,-100.00,North,-999,-999.0,-999.0,-999,0.03,,,1.07,,2013-12-15 05:43:00,
2013-12-14 20:53:00,33.0,-99.9,-100.00,North,-999,-999.0,-999.0,-999,0.03,,,1.07,,2013-12-15 05:53:00,
2013-12-14 21:00:00,35.0,-99.9,-100.00,North,-999,-999.0,-999.0,-999,0.01,,,1.08,,2013-12-15 06:00:00,
2013-12-14 21:42:00,35.0,-99.9,-100.00,North,-999,-999.0,-999.0,-999,0.01,,,1.08,,2013-12-15 06:42:00,
2013-12-14 21:52:00,35.0,-99.9,-100.00,North,-999,-999.0,-999.0,-999,0.01,,,1.08,,2013-12-15 06:52:00,
2013-12-14 22:00:00,35.0,-99.9,-100.00,North,-999,-999.0,-999.0,-999,0.01,,,1.09,,2013-12-15 07:00:00,
2013-12-14 22:42:00,35.0,-99.9,-100.00,North,-999,-999.0,-999.0,-999,0.01,,,1.09,,2013-12-15 07:42:00,
2013-12-14 22:52:00,35.0,-99.9,-100.00,North,-999,-999.0,-999.0,-999,0.01,,,1.09,,2013-12-15 07:52:00,
2013-12-14 23:00:00,35.0,-99.9,-100.00,North,-999,-999.0,-999.0,-999,0.00,,,1.09,,2013-12-15 08:00:00,
2013-12-14 23:42:00,35.0,-99.9,-100.00,North,-999,-999.0,-999.0,-999,0.00,,,1.09,,2013-12-15 08:42:00,
2013-12-14 23:52:00,35.0,-99.9,-100.00,North,-999,-999.0,-999.0,-999,0.00,,,1.09,,2013-12-15 08:52:00,